Time,TemperatureF,DewpointF,PressureIn,WindDirection,WindDirectionDegrees,WindSpeedMPH,WindSpeedGustMPH,Humidity,HourlyPrecipIn,Conditions,Clouds,dailyrainin,SoftwareType,DateUTC
2013-03-17 00:00:00,34.1,30.1,29.83,NE,39,0.0,0.0,85,0.00,,OVC031,0.00,VWS V14.01,2013-03-17 04:00:00,
2013-03-17 00:05:00,34.1,30.1,29.83,NNE,24,1.0,6.0,85,0.00,,OVC031,0.00,VWS V14.01,2013-03-17 04:05:00,
2013-03-17 00:10:00,34.1,29.8,29.84,NNE,25,0.0,6.0,84,0.00,,OVC031,0.00,VWS V14.01,2013-03-17 04:10:00,
2013-03-17 00:15:00,34.1,30.1,29.83,NNE,26,0.0,6.0,85,0.00,,OVC031,0.00,VWS V14.01,2013-03-17 04:15:00,
2013-03-17 00:20:00,34.1,30.1,29.84,NNE,26,1.0,6.0,85,0.00,,OVC031,0.00,VWS V14.01,2013-03-17 04:20:00,
2013-03-17 00:25:00,34.1,30.1,29.84,NNE,26,0.0,6.0,85,0.00,,OVC031,0.00,VWS V14.01,2013-03-17 04:25:00,
2013-03-17 00:30:00,34.1,30.1,29.84,NNE,26,0.0,0.0,85,0.00,,OVC031,0.00,VWS V14.01,2013-03-17 04:30:00,
2013-03-17 00:35:00,34.1,30.1,29.84,NNE,26,0.0,4.0,85,0.00,,OVC031,0.00,VWS V14.01,2013-03-17 04:35:00,
2013-03-17 00:40:00,34.0,30.0,29.84,NNE,26,0.0,4.0,85,0.00,,OVC031,0.00,VWS V14.01,2013-03-17 04:40:00,
2013-03-17 00:45:00,34.1,30.1,29.84,NNE,26,1.0,4.0,85,0.00,,OVC031,0.00,VWS V14.01,2013-03-17 04:45:00,
2013-03-17 00:50:00,34.0,30.0,29.84,NNE,26,0.0,4.0,85,0.00,,OVC031,0.00,VWS V14.01,2013-03-17 04:50:00,
2013-03-17 00:55:00,34.1,30.1,29.84,NNE,26,0.0,4.0,85,0.01,,OVC031,0.01,VWS V14.01,2013-03-17 04:55:00,
2013-03-17 01:00:00,34.0,30.1,29.84,NNE,25,0.0,2.0,85,0.01,,OVC031,0.01,VWS V14.01,2013-03-17 05:00:00,
2013-03-17 01:05:00,34.1,30.1,29.85,NNE,26,0.0,3.0,85,0.01,,BKN080,0.01,VWS V14.01,2013-03-17 05:05:00,
2013-03-17 01:10:00,34.1,30.1,29.84,NNE,26,2.0,4.0,85,0.01,,BKN080,0.01,VWS V14.01,2013-03-17 05:10:00,
2013-03-17 01:15:00,34.1,30.1,29.84,NNE,25,2.0,6.0,85,0.01,,BKN080,0.01,VWS V14.01,2013-03-17 05:15:00,
2013-03-17 01:20:00,34.1,29.8,29.84,NNE,26,0.0,6.0,84,0.01,,BKN080,0.01,VWS V14.01,2013-03-17 05:20:00,
2013-03-17 01:25:00,34.0,29.7,29.84,NNE,26,2.0,6.0,84,0.01,,BKN080,0.01,VWS V14.01,2013-03-17 05:25:00,
2013-03-17 01:30:00,34.0,29.7,29.84,NNE,26,1.0,2.0,84,0.01,,BKN080,0.01,VWS V14.01,2013-03-17 05:30:00,
2013-03-17 01:35:00,33.7,29.4,29.84,NNE,26,0.0,2.0,84,0.01,,BKN080,0.01,VWS V14.01,2013-03-17 05:35:00,
2013-03-17 01:40:00,33.8,29.2,29.84,NNE,26,1.0,5.0,83,0.01,,BKN080,0.01,VWS V14.01,2013-03-17 05:40:00,
2013-03-17 01:45:00,33.8,29.5,29.84,NNE,26,2.0,5.0,84,0.01,,BKN080,0.01,VWS V14.01,2013-03-17 05:45:00,
2013-03-17 01:50:00,33.6,29.0,29.85,NNE,26,0.0,5.0,83,0.01,,BKN080,0.01,VWS V14.01,2013-03-17 05:50:00,
2013-03-17 01:55:00,33.6,29.3,29.85,NNE,26,1.0,5.0,84,0.01,,BKN080,0.01,VWS V14.01,2013-03-17 05:55:00,
2013-03-17 02:00:00,33.5,29.2,29.85,NNE,26,0.0,0.0,84,0.00,,BKN080,0.01,VWS V14.01,2013-03-17 06:00:00,
2013-03-17 02:05:00,33.5,29.2,29.85,NNE,26,0.0,1.0,84,0.00,,BKN080,0.01,VWS V14.01,2013-03-17 06:05:00,
2013-03-17 02:10:00,33.5,29.2,29.85,NNE,26,0.0,1.0,84,0.00,,BKN080,0.01,VWS V14.01,2013-03-17 06:10:00,
2013-03-17 02:15:00,33.3,29.0,29.85,NNE,26,0.0,1.0,84,0.00,,BKN080,0.01,VWS V14.01,2013-03-17 06:15:00,
2013-03-17 02:20:00,33.1,29.1,29.84,NNE,26,0.0,1.0,85,0.00,,BKN080,0.01,VWS V14.01,2013-03-17 06:20:00,
2013-03-17 02:25:00,33.3,29.3,29.85,NNE,26,0.0,1.0,85,0.00,,BKN080,0.01,VWS V14.01,2013-03-17 06:25:00,
2013-03-17 02:30:00,33.1,29.1,29.85,NNE,26,0.0,2.0,85,0.00,,BKN080,0.01,VWS V14.01,2013-03-17 06:30:00,
2013-03-17 02:35:00,33.0,29.0,29.85,NNE,26,0.0,3.0,85,0.00,,BKN080,0.01,VWS V14.01,2013-03-17 06:35:00,
2013-03-17 02:40:00,32.7,28.7,29.85,NNE,26,0.0,3.0,85,0.00,,BKN080,0.01,VWS V14.01,2013-03-17 06:40:00,
2013-03-17 02:45:00,32.6,28.6,29.85,NNE,26,0.0,3.0,85,0.00,,BKN080,0.01,VWS V14.01,2013-03-17 06:45:00,
2013-03-17 02:50:00,32.6,28.6,29.85,NNE,26,0.0,3.0,85,0.00,,BKN080,0.01,VWS V14.01,2013-03-17 06:50:00,
2013-03-17 02:55:00,32.5,28.5,29.86,NNE,26,0.0,4.0,85,0.00,,BKN080,0.01,VWS V14.01,2013-03-17 06:55:00,
2013-03-17 03:00:00,32.5,28.5,29.86,NNE,26,0.0,0.0,85,0.00,,BKN080,0.01,VWS V14.01,2013-03-17 07:00:00,
2013-03-17 03:05:00,32.5,28.2,29.86,NNE,28,1.0,7.0,84,0.00,,BKN080,0.01,VWS V14.01,2013-03-17 07:05:00,
2013-03-17 03:10:00,32.4,28.4,29.86,NNE,28,2.0,7.0,85,0.00,,BKN080,0.01,VWS V14.01,2013-03-17 07:10:00,
2013-03-17 03:15:00,32.4,28.1,29.86,NNE,28,0.0,7.0,84,0.00,,BKN080,0.01,VWS V14.01,2013-03-17 07:15:00,
2013-03-17 03:20:00,32.4,28.4,29.86,NNE,28,1.0,7.0,85,0.00,,BKN080,0.01,VWS V14.01,2013-03-17 07:20:00,
2013-03-17 03:25:00,32.2,28.3,29.86,NNE,28,0.0,7.0,85,0.00,,BKN080,0.01,VWS V14.01,2013-03-17 07:25:00,
2013-03-17 03:30:00,32.2,28.2,29.87,NNE,28,4.0,4.0,85,0.00,,BKN080,0.01,VWS V14.01,2013-03-17 07:30:00,
2013-03-17 03:35:00,32.2,28.2,29.87,NNE,19,0.0,6.0,85,0.00,,BKN080,0.01,VWS V14.01,2013-03-17 07:35:00,
2013-03-17 03:40:00,32.1,28.1,29.87,NNE,20,2.0,6.0,85,0.00,,BKN080,0.01,VWS V14.01,2013-03-17 07:40:00,
2013-03-17 03:45:00,32.1,28.1,29.88,NNE,20,0.0,6.0,85,0.00,,BKN080,0.00,VWS V14.01,2013-03-17 07:45:00,
2013-03-17 03:50:00,32.1,28.1,29.88,NNE,20,0.0,6.0,85,0.00,,BKN080,0.01,VWS V14.01,2013-03-17 07:50:00,
2013-03-17 03:55:00,32.2,28.2,29.88,NNE,32,0.0,7.0,85,0.00,,BKN080,0.01,VWS V14.01,2013-03-17 07:55:00,
2013-03-17 04:00:00,32.2,27.9,29.88,North,11,11.0,11.0,84,0.00,,BKN080,0.01,VWS V14.01,2013-03-17 08:00:00,
2013-03-17 04:05:00,32.2,27.6,29.88,NNE,30,4.0,11.0,83,0.00,,BKN080,0.01,VWS V14.01,2013-03-17 08:05:00,
2013-03-17 04:10:00,32.1,27.2,29.88,NNE,27,5.0,11.0,82,0.00,,BKN080,0.01,VWS V14.01,2013-03-17 08:10:00,
2013-03-17 04:15:00,31.9,26.7,29.88,NNE,14,0.0,11.0,82,0.00,,BKN080,0.01,VWS V14.01,2013-03-17 08:15:00,
2013-03-17 04:20:00,32.0,26.8,29.89,NNW,343,1.0,11.0,81,0.00,,BKN080,0.01,VWS V14.01,2013-03-17 08:20:00,
2013-03-17 04:25:00,31.9,26.7,29.89,NNE,12,2.0,11.0,81,0.00,,BKN080,0.01,VWS V14.01,2013-03-17 08:25:00,
2013-03-17 04:30:00,31.8,26.5,29.89,NNE,13,0.0,0.0,81,0.00,,BKN080,0.01,VWS V14.01,2013-03-17 08:30:00,
2013-03-17 04:35:00,31.6,26.5,29.90,North,7,5.0,6.0,81,0.00,,BKN080,0.01,VWS V14.01,2013-03-17 08:35:00,
2013-03-17 04:40:00,31.5,26.0,29.89,North,0,3.0,7.0,80,0.00,,BKN080,0.01,VWS V14.01,2013-03-17 08:40:00,
2013-03-17 04:45:00,31.5,26.0,29.89,NE,34,6.0,7.0,80,0.00,,BKN080,0.01,VWS V14.01,2013-03-17 08:45:00,
2013-03-17 04:50:00,31.4,25.6,29.90,NNW,345,3.0,8.0,79,0.00,,BKN080,0.01,VWS V14.01,2013-03-17 08:50:00,
2013-03-17 04:55:00,31.3,25.2,29.90,North,354,3.0,8.0,78,0.00,,BKN080,0.01,VWS V14.01,2013-03-17 08:55:00,
2013-03-17 05:00:00,31.2,25.1,29.90,North,1,2.0,2.0,78,0.00,,BKN080,0.01,VWS V14.01,2013-03-17 09:00:00,
2013-03-17 05:05:00,31.1,24.8,29.91,North,358,2.0,6.0,78,0.00,,BKN080,0.01,VWS V14.01,2013-03-17 09:05:00,
2013-03-17 05:10:00,31.0,24.6,29.91,North,6,1.0,6.0,77,0.00,,BKN080,0.01,VWS V14.01,2013-03-17 09:10:00,
2013-03-17 05:15:00,31.0,24.6,29.91,North,5,4.0,8.0,77,0.00,,BKN080,0.01,VWS V14.01,2013-03-17 09:15:00,
2013-03-17 05:20:00,31.0,24.6,29.91,North,11,5.0,8.0,77,0.00,,BKN080,0.01,VWS V14.01,2013-03-17 09:20:00,
2013-03-17 05:25:00,31.0,24.6,29.91,NE,34,4.0,9.0,77,0.00,,BKN080,0.01,VWS V14.01,2013-03-17 09:25:00,
2013-03-17 05:30:00,30.9,24.2,29.91,North,6,6.0,10.0,76,0.00,,BKN080,0.01,VWS V14.01,2013-03-17 09:30:00,
2013-03-17 05:35:00,30.9,23.9,29.91,North,3,2.0,6.0,76,0.00,,BKN080,0.01,VWS V14.01,2013-03-17 09:35:00,
2013-03-17 05:40:00,31.0,24.0,29.91,NNE,32,2.0,10.0,75,0.00,,BKN080,0.01,VWS V14.01,2013-03-17 09:40:00,
2013-03-17 05:45:00,31.0,24.0,29.91,NNE,27,4.0,10.0,75,0.00,,BKN080,0.01,VWS V14.01,2013-03-17 09:45:00,
2013-03-17 05:50:00,30.8,23.8,29.92,NNE,22,5.0,10.0,75,0.00,,BKN080,0.01,VWS V14.01,2013-03-17 09:50:00,
2013-03-17 05:55:00,30.7,23.4,29.92,North,1,5.0,12.0,74,0.00,,BKN080,0.01,VWS V14.01,2013-03-17 09:55:00,
2013-03-17 06:00:00,30.7,23.4,29.93,North,358,4.0,12.0,74,0.00,,BKN080,0.01,VWS V14.01,2013-03-17 10:00:00,
2013-03-17 06:05:00,30.6,23.0,29.93,North,4,4.0,9.0,74,0.00,,SCT250,0.01,VWS V14.01,2013-03-17 10:05:00,
2013-03-17 06:10:00,30.6,23.0,29.92,North,359,4.0,10.0,73,0.00,,SCT250,0.01,VWS V14.01,2013-03-17 10:10:00,
2013-03-17 06:15:00,30.5,22.9,29.93,NNE,15,4.0,10.0,73,0.00,,SCT250,0.01,VWS V14.01,2013-03-17 10:15:00,
2013-03-17 06:20:00,30.4,22.8,29.93,NNE,28,1.0,10.0,73,0.00,,SCT250,0.01,VWS V14.01,2013-03-17 10:20:00,
2013-03-17 06:25:00,30.3,22.7,29.93,North,1,6.0,10.0,73,0.00,,SCT250,0.01,VWS V14.01,2013-03-17 10:25:00,
2013-03-17 06:30:00,30.3,22.7,29.93,NNE,26,2.0,11.0,73,0.00,,SCT250,0.01,VWS V14.01,2013-03-17 10:30:00,
2013-03-17 06:35:00,30.3,22.7,29.93,NNE,24,4.0,10.0,73,0.00,,SCT250,0.01,VWS V14.01,2013-03-17 10:35:00,
2013-03-17 06:40:00,30.3,22.7,29.94,NNE,30,1.0,10.0,73,0.00,,SCT250,0.01,VWS V14.01,2013-03-17 10:40:00,
2013-03-17 06:45:00,30.2,22.6,29.94,North,11,4.0,10.0,73,0.00,,SCT250,0.01,VWS V14.01,2013-03-17 10:45:00,
2013-03-17 06:50:00,30.2,22.6,29.95,North,3,5.0,11.0,73,0.00,,SCT250,0.01,VWS V14.01,2013-03-17 10:50:00,
2013-03-17 06:55:00,30.1,22.5,29.95,NNE,14,4.0,11.0,73,0.00,,SCT250,0.01,VWS V14.01,2013-03-17 10:55:00,
2013-03-17 07:00:00,30.0,22.4,29.96,North,357,5.0,11.0,73,0.00,,SCT250,0.01,VWS V14.01,2013-03-17 11:00:00,
2013-03-17 07:05:00,29.9,22.0,29.97,North,0,3.0,8.0,72,0.00,,SCT250,0.01,VWS V14.01,2013-03-17 11:05:00,
2013-03-17 07:10:00,29.8,21.9,29.96,North,0,3.0,10.0,72,0.00,,SCT250,0.01,VWS V14.01,2013-03-17 11:10:00,
2013-03-17 07:15:00,29.8,21.6,29.97,North,358,8.0,12.0,71,0.00,,SCT250,0.01,VWS V14.01,2013-03-17 11:15:00,
2013-03-17 07:20:00,29.8,21.9,29.97,NNE,20,7.0,13.0,72,0.00,,SCT250,0.01,VWS V14.01,2013-03-17 11:20:00,
2013-03-17 07:25:00,29.8,21.6,29.98,NNE,13,7.0,13.0,71,0.00,,SCT250,0.01,VWS V14.01,2013-03-17 11:25:00,
2013-03-17 07:30:00,29.8,21.9,29.99,North,8,4.0,5.0,72,0.00,,SCT250,0.01,VWS V14.01,2013-03-17 11:30:00,
2013-03-17 07:35:00,29.8,21.9,29.99,NNE,19,3.0,9.0,72,0.00,,SCT250,0.01,VWS V14.01,2013-03-17 11:35:00,
2013-03-17 07:40:00,29.7,21.5,30.00,NNE,14,8.0,10.0,71,0.00,,SCT250,0.01,VWS V14.01,2013-03-17 11:40:00,
2013-03-17 07:45:00,29.6,21.4,30.00,North,10,4.0,10.0,71,0.00,,SCT250,0.01,VWS V14.01,2013-03-17 11:45:00,
2013-03-17 07:50:00,29.8,21.2,29.99,NNE,13,3.0,10.0,70,0.00,,SCT250,0.01,VWS V14.01,2013-03-17 11:50:00,
2013-03-17 07:55:00,29.8,20.9,30.00,North,10,5.0,10.0,69,0.00,,SCT250,0.01,VWS V14.01,2013-03-17 11:55:00,
2013-03-17 08:00:00,29.7,20.8,30.00,North,6,6.0,6.0,69,0.00,,SCT250,0.01,VWS V14.01,2013-03-17 12:00:00,
2013-03-17 08:05:00,29.9,21.0,30.00,NNE,12,4.0,11.0,69,0.00,,CLR,0.01,VWS V14.01,2013-03-17 12:05:00,
2013-03-17 08:10:00,30.1,20.8,30.00,North,355,3.0,11.0,68,0.00,,CLR,0.01,VWS V14.01,2013-03-17 12:10:00,
2013-03-17 08:15:00,30.1,20.5,30.00,NNE,18,11.0,11.0,67,0.00,,CLR,0.01,VWS V14.01,2013-03-17 12:15:00,
2013-03-17 08:20:00,30.1,20.1,30.00,North,351,6.0,11.0,66,0.00,,CLR,0.01,VWS V14.01,2013-03-17 12:20:00,
2013-03-17 08:25:00,30.0,20.0,30.00,North,1,4.0,11.0,66,0.00,,CLR,0.01,VWS V14.01,2013-03-17 12:25:00,
2013-03-17 08:30:00,30.2,20.2,30.01,North,358,4.0,11.0,66,0.00,,CLR,0.01,VWS V14.01,2013-03-17 12:30:00,
2013-03-17 08:35:00,30.2,20.2,30.01,NNE,17,2.0,8.0,66,0.00,,CLR,0.01,VWS V14.01,2013-03-17 12:35:00,
2013-03-17 08:40:00,30.2,20.2,30.01,NNE,12,5.0,9.0,66,0.00,,CLR,0.01,VWS V14.01,2013-03-17 12:40:00,
2013-03-17 08:45:00,30.2,20.2,30.01,North,7,1.0,9.0,66,0.00,,CLR,0.01,VWS V14.01,2013-03-17 12:45:00,
2013-03-17 08:50:00,30.4,20.4,30.02,NNE,18,6.0,10.0,66,0.00,,CLR,0.01,VWS V14.01,2013-03-17 12:50:00,
2013-03-17 08:55:00,30.6,20.2,30.02,NNE,22,7.0,10.0,65,0.00,,CLR,0.01,VWS V14.01,2013-03-17 12:55:00,
2013-03-17 09:00:00,30.7,20.3,30.04,North,2,2.0,2.0,65,0.00,,CLR,0.01,VWS V14.01,2013-03-17 13:00:00,
2013-03-17 09:05:00,30.7,20.3,30.04,NNE,29,2.0,10.0,65,0.00,,SCT200,0.01,VWS V14.01,2013-03-17 13:05:00,
2013-03-17 09:10:00,31.0,20.3,30.04,NNE,16,5.0,10.0,64,0.00,,SCT200,0.01,VWS V14.01,2013-03-17 13:10:00,
2013-03-17 09:15:00,31.0,20.6,30.05,NNE,33,4.0,10.0,65,0.00,,SCT200,0.01,VWS V14.01,2013-03-17 13:15:00,
2013-03-17 09:20:00,31.2,20.5,30.05,NNE,19,3.0,10.0,64,0.00,,SCT200,0.01,VWS V14.01,2013-03-17 13:20:00,
2013-03-17 09:25:00,31.2,20.5,30.05,NNW,333,1.0,10.0,64,0.00,,SCT200,0.01,VWS V14.01,2013-03-17 13:25:00,
2013-03-17 09:30:00,31.4,20.7,30.05,NNE,19,2.0,10.0,64,0.00,,SCT200,0.01,VWS V14.01,2013-03-17 13:30:00,
2013-03-17 09:35:00,31.8,21.0,30.05,North,353,6.0,6.0,64,0.00,,SCT200,0.01,VWS V14.01,2013-03-17 13:35:00,
2013-03-17 09:40:00,31.9,20.9,30.04,NNE,15,4.0,8.0,63,0.00,,SCT200,0.01,VWS V14.01,2013-03-17 13:40:00,
2013-03-17 09:45:00,32.1,20.6,30.04,North,6,8.0,10.0,62,0.00,,SCT200,0.01,VWS V14.01,2013-03-17 13:45:00,
2013-03-17 09:50:00,32.1,20.2,30.04,NNW,333,3.0,10.0,61,0.00,,SCT200,0.01,VWS V14.01,2013-03-17 13:50:00,
2013-03-17 09:55:00,32.3,20.0,30.04,NE,42,2.0,11.0,60,0.00,,SCT200,0.01,VWS V14.01,2013-03-17 13:55:00,
2013-03-17 10:00:00,32.6,20.3,30.05,North,8,3.0,5.0,60,0.00,,SCT200,0.01,VWS V14.01,2013-03-17 14:00:00,
2013-03-17 10:05:00,33.0,19.9,30.05,NNW,339,2.0,10.0,58,0.00,,SCT200,0.01,VWS V14.01,2013-03-17 14:05:00,
2013-03-17 10:10:00,33.3,19.3,30.05,NNW,330,3.0,11.0,56,0.00,,SCT200,0.01,VWS V14.01,2013-03-17 14:10:00,
2013-03-17 10:15:00,33.2,18.8,30.05,North,357,6.0,13.0,55,0.00,,SCT200,0.01,VWS V14.01,2013-03-17 14:15:00,
2013-03-17 10:20:00,33.0,18.6,30.05,NNE,30,1.0,14.0,55,0.00,,SCT200,0.01,VWS V14.01,2013-03-17 14:20:00,
2013-03-17 10:25:00,33.5,19.5,30.05,North,7,6.0,14.0,56,0.00,,SCT200,0.01,VWS V14.01,2013-03-17 14:25:00,
2013-03-17 10:30:00,33.5,18.6,30.05,NNW,348,8.0,14.0,54,0.00,,SCT200,0.01,VWS V14.01,2013-03-17 14:30:00,
2013-03-17 10:35:00,33.5,18.2,30.05,NNE,24,16.0,16.0,53,0.00,,SCT200,0.01,VWS V14.01,2013-03-17 14:35:00,
2013-03-17 10:40:00,33.7,18.4,30.06,NNW,342,3.0,16.0,53,0.00,,SCT200,0.01,VWS V14.01,2013-03-17 14:40:00,
2013-03-17 10:45:00,33.8,18.0,30.05,North,350,4.0,16.0,52,0.00,,SCT200,0.01,VWS V14.01,2013-03-17 14:45:00,
2013-03-17 10:50:00,33.9,18.6,30.05,NNE,23,4.0,16.0,53,0.00,,SCT200,0.01,VWS V14.01,2013-03-17 14:50:00,
2013-03-17 10:55:00,34.3,18.1,30.05,North,358,7.0,16.0,52,0.00,,SCT200,0.01,VWS V14.01,2013-03-17 14:55:00,
2013-03-17 11:00:00,34.0,18.2,30.05,NNW,346,7.0,16.0,52,0.00,,SCT200,0.01,VWS V14.01,2013-03-17 15:00:00,
2013-03-17 11:04:00,34.1,17.9,30.05,NNE,16,8.0,16.0,51,0.00,,BKN190,0.01,VWS V14.01,2013-03-17 15:04:00,
2013-03-17 11:09:00,34.5,19.1,30.04,NNE,20,8.0,16.0,53,0.00,,BKN190,0.01,VWS V14.01,2013-03-17 15:09:00,
2013-03-17 11:14:00,34.8,19.0,30.05,North,359,6.0,17.0,52,0.00,,BKN190,0.01,VWS V14.01,2013-03-17 15:14:00,
2013-03-17 11:19:00,35.0,18.7,30.05,North,358,9.0,17.0,51,0.00,,BKN190,0.01,VWS V14.01,2013-03-17 15:19:00,
2013-03-17 11:24:00,34.7,18.4,30.05,North,355,6.0,17.0,51,0.00,,BKN190,0.01,VWS V14.01,2013-03-17 15:24:00,
2013-03-17 11:29:00,34.7,18.4,30.04,North,3,5.0,17.0,51,0.00,,BKN190,0.01,VWS V14.01,2013-03-17 15:29:00,
2013-03-17 11:34:00,34.8,18.5,30.05,NNE,17,3.0,13.0,51,0.00,,BKN190,0.01,VWS V14.01,2013-03-17 15:34:00,
2013-03-17 11:39:00,34.9,19.1,30.05,North,7,4.0,16.0,52,0.00,,BKN190,0.01,VWS V14.01,2013-03-17 15:39:00,
2013-03-17 11:44:00,35.4,18.6,30.05,NE,38,8.0,16.0,50,0.00,,BKN190,0.01,VWS V14.01,2013-03-17 15:44:00,
2013-03-17 11:49:00,35.6,19.3,30.05,North,358,6.0,16.0,51,0.00,,BKN190,0.01,VWS V14.01,2013-03-17 15:49:00,
2013-03-17 11:54:00,35.7,19.4,30.05,North,9,2.0,16.0,51,0.00,,BKN190,0.01,VWS V14.01,2013-03-17 15:54:00,
2013-03-17 11:59:00,35.5,19.2,30.05,North,5,6.0,16.0,51,0.00,,BKN190,0.01,VWS V14.01,2013-03-17 15:59:00,
2013-03-17 12:04:00,35.6,19.3,30.05,North,359,3.0,11.0,51,0.00,,BKN250,0.01,VWS V14.01,2013-03-17 16:04:00,
2013-03-17 12:09:00,35.8,19.5,30.05,North,356,5.0,16.0,51,0.00,,BKN250,0.01,VWS V14.01,2013-03-17 16:09:00,
2013-03-17 12:14:00,35.6,18.8,30.05,North,0,8.0,16.0,50,0.01,,BKN250,0.02,VWS V14.01,2013-03-17 16:14:00,
2013-03-17 12:19:00,35.7,19.4,30.06,NNE,33,6.0,16.0,51,0.01,,BKN250,0.02,VWS V14.01,2013-03-17 16:19:00,
2013-03-17 12:24:00,35.7,18.9,30.06,North,353,1.0,16.0,50,0.01,,BKN250,0.02,VWS V14.01,2013-03-17 16:24:00,
2013-03-17 12:29:00,35.4,19.1,30.06,NNE,23,3.0,16.0,50,0.01,,BKN250,0.02,VWS V14.01,2013-03-17 16:29:00,
2013-03-17 12:34:00,35.8,19.0,30.06,North,8,3.0,11.0,50,0.01,,BKN250,0.02,VWS V14.01,2013-03-17 16:34:00,
2013-03-17 12:39:00,36.0,18.7,30.06,NNE,15,7.0,15.0,49,0.01,,BKN250,0.02,VWS V14.01,2013-03-17 16:39:00,
2013-03-17 12:44:00,35.8,18.5,30.05,NNE,18,1.0,15.0,49,0.01,,BKN250,0.02,VWS V14.01,2013-03-17 16:44:00,
2013-03-17 12:49:00,35.9,18.6,30.06,NNE,17,11.0,15.0,49,0.01,,BKN250,0.02,VWS V14.01,2013-03-17 16:49:00,
2013-03-17 12:54:00,35.9,18.6,30.06,NE,50,4.0,15.0,49,0.01,,BKN250,0.02,VWS V14.01,2013-03-17 16:54:00,
2013-03-17 12:59:00,36.4,19.1,30.06,NE,39,3.0,15.0,49,0.01,,BKN250,0.02,VWS V14.01,2013-03-17 16:59:00,
2013-03-17 13:04:00,36.5,18.2,30.06,NE,39,8.0,11.0,47,0.01,,BKN190,0.02,VWS V14.01,2013-03-17 17:04:00,
2013-03-17 13:09:00,36.3,18.0,30.06,North,0,8.0,13.0,47,0.01,,BKN190,0.02,VWS V14.01,2013-03-17 17:09:00,
2013-03-17 13:14:00,35.9,17.6,30.06,North,359,4.0,13.0,47,0.01,,BKN190,0.02,VWS V14.01,2013-03-17 17:14:00,
2013-03-17 13:19:00,35.9,18.1,30.06,North,5,0.0,13.0,48,0.01,,BKN190,0.02,VWS V14.01,2013-03-17 17:19:00,
2013-03-17 13:24:00,36.4,19.1,30.06,NNE,22,8.0,13.0,49,0.01,,BKN190,0.02,VWS V14.01,2013-03-17 17:24:00,
2013-03-17 13:29:00,36.5,18.2,30.07,North,3,3.0,13.0,47,0.01,,BKN190,0.02,VWS V14.01,2013-03-17 17:29:00,
2013-03-17 13:34:00,36.2,18.4,30.06,North,356,6.0,9.0,48,0.00,,BKN190,0.02,VWS V14.01,2013-03-17 17:34:00,
2013-03-17 13:39:00,36.2,17.9,30.07,NNE,19,6.0,10.0,47,0.00,,BKN190,0.02,VWS V14.01,2013-03-17 17:39:00,
2013-03-17 13:44:00,36.2,18.4,30.06,NNE,17,9.0,11.0,48,0.00,,BKN190,0.02,VWS V14.01,2013-03-17 17:44:00,
2013-03-17 13:49:00,36.3,18.0,30.06,NNE,20,0.0,16.0,47,0.00,,BKN190,0.02,VWS V14.01,2013-03-17 17:49:00,
2013-03-17 13:54:00,36.4,18.6,30.06,North,5,8.0,16.0,48,0.00,,BKN190,0.02,VWS V14.01,2013-03-17 17:54:00,
2013-03-17 13:59:00,36.7,18.4,30.07,NNW,337,3.0,16.0,47,0.00,,BKN190,0.02,VWS V14.01,2013-03-17 17:59:00,
2013-03-17 14:04:00,37.1,18.8,30.07,NNW,343,4.0,11.0,47,0.00,,BKN210,0.02,VWS V14.01,2013-03-17 18:04:00,
2013-03-17 14:09:00,37.0,18.7,30.07,NNE,21,3.0,12.0,47,0.00,,BKN210,0.02,VWS V14.01,2013-03-17 18:09:00,
2013-03-17 14:14:00,37.1,18.2,30.07,North,359,6.0,12.0,46,0.00,,BKN210,0.02,VWS V14.01,2013-03-17 18:14:00,
2013-03-17 14:19:00,37.1,18.8,30.07,North,352,8.0,12.0,47,0.00,,BKN210,0.02,VWS V14.01,2013-03-17 18:19:00,
2013-03-17 14:24:00,37.0,18.2,30.06,NW,318,4.0,14.0,46,0.00,,BKN210,0.02,VWS V14.01,2013-03-17 18:24:00,
2013-03-17 14:29:00,36.7,17.9,30.07,North,358,4.0,14.0,46,0.00,,BKN210,0.02,VWS V14.01,2013-03-17 18:29:00,
2013-03-17 14:34:00,36.4,17.6,30.06,NNW,333,7.0,10.0,46,0.00,,BKN210,0.02,VWS V14.01,2013-03-17 18:34:00,
2013-03-17 14:39:00,36.2,18.4,30.06,North,6,4.0,11.0,48,0.00,,BKN210,0.02,VWS V14.01,2013-03-17 18:39:00,
2013-03-17 14:44:00,36.3,18.5,30.07,North,353,4.0,11.0,48,0.00,,BKN210,0.02,VWS V14.01,2013-03-17 18:44:00,
2013-03-17 14:49:00,36.4,18.1,30.07,North,350,3.0,11.0,47,0.00,,BKN210,0.02,VWS V14.01,2013-03-17 18:49:00,
2013-03-17 14:54:00,36.3,18.5,30.06,NE,40,6.0,11.0,48,0.00,,BKN210,0.02,VWS V14.01,2013-03-17 18:54:00,
2013-03-17 14:59:00,36.8,18.5,30.07,NNE,27,7.0,13.0,47,0.00,,BKN210,0.02,VWS V14.01,2013-03-17 18:59:00,
2013-03-17 15:04:00,36.7,18.4,30.06,North,11,9.0,10.0,47,0.00,,OVC170,0.02,VWS V14.01,2013-03-17 19:04:00,
2013-03-17 15:09:00,36.9,18.6,30.06,North,4,6.0,14.0,47,0.00,,OVC170,0.02,VWS V14.01,2013-03-17 19:09:00,
2013-03-17 15:14:00,37.0,18.7,30.06,NNE,13,3.0,14.0,47,0.00,,OVC170,0.02,VWS V14.01,2013-03-17 19:14:00,
2013-03-17 15:19:00,37.1,18.8,30.06,NNE,29,3.0,14.0,47,0.00,,OVC170,0.02,VWS V14.01,2013-03-17 19:19:00,
2013-03-17 15:24:00,37.5,19.0,30.06,NNE,17,3.0,14.0,47,0.00,,OVC170,0.02,VWS V14.01,2013-03-17 19:24:00,
2013-03-17 15:29:00,37.5,19.1,30.07,NNW,338,2.0,14.0,47,0.00,,OVC170,0.02,VWS V14.01,2013-03-17 19:29:00,
2013-03-17 15:34:00,37.3,18.4,30.07,NNW,343,4.0,11.0,46,0.00,,OVC170,0.02,VWS V14.01,2013-03-17 19:34:00,
2013-03-17 15:39:00,36.9,18.1,30.07,NNW,346,5.0,11.0,46,0.00,,OVC170,0.02,VWS V14.01,2013-03-17 19:39:00,
2013-03-17 15:44:00,37.2,19.3,30.07,NNE,24,5.0,11.0,48,0.00,,OVC170,0.02,VWS V14.01,2013-03-17 19:44:00,
2013-03-17 15:49:00,37.4,19.0,30.07,North,3,1.0,11.0,47,0.00,,OVC170,0.02,VWS V14.01,2013-03-17 19:49:00,
2013-03-17 15:54:00,37.6,19.2,30.07,North,9,7.0,11.0,47,0.00,,OVC170,0.02,VWS V14.01,2013-03-17 19:54:00,
2013-03-17 15:59:00,37.5,18.6,30.07,NNW,348,5.0,11.0,46,0.00,,OVC170,0.02,VWS V14.01,2013-03-17 19:59:00,
2013-03-17 16:04:00,37.5,18.6,30.07,NNW,341,5.0,9.0,46,0.00,,OVC180,0.02,VWS V14.01,2013-03-17 20:04:00,
2013-03-17 16:09:00,37.5,18.1,30.07,NNW,337,7.0,9.0,45,0.00,,OVC180,0.02,VWS V14.01,2013-03-17 20:09:00,
2013-03-17 16:14:00,37.7,19.4,30.07,NNE,16,6.0,9.0,47,0.00,,OVC180,0.02,VWS V14.01,2013-03-17 20:14:00,
2013-03-17 16:19:00,38.0,18.6,30.07,North,8,3.0,9.0,46,0.00,,OVC180,0.02,VWS V14.01,2013-03-17 20:19:00,
2013-03-17 16:24:00,38.1,19.2,30.08,North,354,5.0,9.0,45,0.00,,OVC180,0.02,VWS V14.01,2013-03-17 20:24:00,
2013-03-17 16:29:00,38.1,18.1,30.07,NNW,345,3.0,9.0,45,0.00,,OVC180,0.02,VWS V14.01,2013-03-17 20:29:00,
2013-03-17 16:34:00,38.0,18.6,30.07,North,349,3.0,10.0,45,0.00,,OVC180,0.02,VWS V14.01,2013-03-17 20:34:00,
2013-03-17 16:39:00,38.1,18.6,30.07,NNE,22,3.0,16.0,45,0.00,,OVC180,0.02,VWS V14.01,2013-03-17 20:39:00,
2013-03-17 16:44:00,38.2,18.2,30.07,North,353,6.0,16.0,44,0.00,,OVC180,0.02,VWS V14.01,2013-03-17 20:44:00,
2013-03-17 16:49:00,38.1,17.6,30.07,NNE,23,6.0,16.0,43,0.00,,OVC180,0.02,VWS V14.01,2013-03-17 20:49:00,
2013-03-17 16:54:00,38.0,17.5,30.07,North,2,4.0,16.0,43,0.00,,OVC180,0.02,VWS V14.01,2013-03-17 20:54:00,
2013-03-17 16:59:00,37.8,17.3,30.07,North,357,4.0,16.0,43,0.00,,OVC180,0.02,VWS V14.01,2013-03-17 20:59:00,
2013-03-17 17:04:00,37.8,17.3,30.07,North,7,6.0,10.0,43,0.00,,OVC260,0.02,VWS V14.01,2013-03-17 21:04:00,
2013-03-17 17:09:00,37.6,17.1,30.07,North,349,5.0,14.0,43,0.00,,OVC260,0.02,VWS V14.01,2013-03-17 21:09:00,
2013-03-17 17:14:00,37.9,18.0,30.08,NNE,23,0.0,14.0,44,0.00,,OVC260,0.02,VWS V14.01,2013-03-17 21:14:00,
2013-03-17 17:19:00,37.9,16.9,30.08,NW,314,5.0,14.0,42,0.00,,OVC260,0.02,VWS V14.01,2013-03-17 21:19:00,
2013-03-17 17:24:00,37.6,16.6,30.08,NW,314,3.0,14.0,42,0.00,,OVC260,0.02,VWS V14.01,2013-03-17 21:24:00,
2013-03-17 17:29:00,37.7,17.2,30.08,North,357,3.0,14.0,43,0.00,,OVC260,0.02,VWS V14.01,2013-03-17 21:29:00,
2013-03-17 17:34:00,37.8,17.3,30.08,North,8,6.0,10.0,43,0.00,,OVC260,0.02,VWS V14.01,2013-03-17 21:34:00,
2013-03-17 17:39:00,37.7,17.2,30.09,North,0,3.0,11.0,43,0.00,,OVC260,0.02,VWS V14.01,2013-03-17 21:39:00,
2013-03-17 17:44:00,37.7,17.2,30.09,NNE,14,1.0,11.0,43,0.00,,OVC260,0.02,VWS V14.01,2013-03-17 21:44:00,
2013-03-17 17:49:00,37.7,16.7,30.09,North,7,5.0,11.0,42,0.00,,OVC260,0.02,VWS V14.01,2013-03-17 21:49:00,
2013-03-17 17:54:00,37.7,17.2,30.09,North,1,5.0,11.0,43,0.00,,OVC260,0.02,VWS V14.01,2013-03-17 21:54:00,
2013-03-17 17:59:00,37.6,16.6,30.10,NNW,332,1.0,11.0,42,0.00,,OVC260,0.02,VWS V14.01,2013-03-17 21:59:00,
2013-03-17 18:04:00,37.5,17.0,30.10,NNE,17,9.0,9.0,43,0.00,,OVC190,0.02,VWS V14.01,2013-03-17 22:04:00,
2013-03-17 18:09:00,37.5,16.5,30.10,NNE,14,0.0,11.0,43,0.00,,OVC190,0.02,VWS V14.01,2013-03-17 22:09:00,
2013-03-17 18:14:00,37.3,16.9,30.10,NNW,345,6.0,11.0,43,0.00,,OVC190,0.02,VWS V14.01,2013-03-17 22:14:00,
2013-03-17 18:19:00,37.0,16.6,30.10,NNW,342,3.0,11.0,43,0.00,,OVC190,0.02,VWS V14.01,2013-03-17 22:19:00,
2013-03-17 18:24:00,36.9,16.0,30.11,NNW,338,3.0,11.0,42,0.00,,OVC190,0.02,VWS V14.01,2013-03-17 22:24:00,
2013-03-17 18:29:00,36.8,15.9,30.11,North,4,4.0,11.0,42,0.00,,OVC190,0.02,VWS V14.01,2013-03-17 22:29:00,
2013-03-17 18:34:00,36.7,16.3,30.11,North,354,2.0,6.0,43,0.00,,OVC190,0.02,VWS V14.01,2013-03-17 22:34:00,
2013-03-17 18:39:00,36.7,16.3,30.12,North,358,6.0,7.0,43,0.00,,OVC190,0.02,VWS V14.01,2013-03-17 22:39:00,
2013-03-17 18:44:00,36.5,16.1,30.12,North,0,0.0,7.0,43,0.00,,OVC190,0.02,VWS V14.01,2013-03-17 22:44:00,
2013-03-17 18:49:00,36.5,16.1,30.12,North,359,3.0,8.0,43,0.00,,OVC190,0.02,VWS V14.01,2013-03-17 22:49:00,
2013-03-17 18:54:00,36.5,16.1,30.12,NNE,27,9.0,9.0,43,0.00,,OVC190,0.02,VWS V14.01,2013-03-17 22:54:00,
2013-03-17 18:59:00,36.4,16.6,30.13,North,3,6.0,9.0,44,0.00,,OVC190,0.02,VWS V14.01,2013-03-17 22:59:00,
2013-03-17 19:04:00,36.4,16.0,30.13,NNE,22,4.0,8.0,44,0.00,,OVC200,0.02,VWS V14.01,2013-03-17 23:04:00,
2013-03-17 19:09:00,36.3,16.0,30.13,WNW,302,2.0,9.0,43,0.00,,OVC200,0.02,VWS V14.01,2013-03-17 23:09:00,
2013-03-17 19:14:00,36.1,15.8,30.13,North,352,5.0,9.0,43,0.00,,OVC200,0.02,VWS V14.01,2013-03-17 23:14:00,
2013-03-17 19:19:00,36.1,15.8,30.13,North,3,5.0,9.0,43,0.00,,OVC200,0.02,VWS V14.01,2013-03-17 23:19:00,
2013-03-17 19:24:00,36.0,15.7,30.14,North,359,2.0,9.0,43,0.00,,OVC200,0.02,VWS V14.01,2013-03-17 23:24:00,
2013-03-17 19:29:00,36.1,15.9,30.14,NNE,12,1.0,9.0,43,0.00,,OVC200,0.02,VWS V14.01,2013-03-17 23:29:00,
2013-03-17 19:34:00,36.3,16.5,30.14,NNE,12,1.0,5.0,44,0.00,,OVC200,0.02,VWS V14.01,2013-03-17 23:34:00,
2013-03-17 19:39:00,36.3,16.4,30.15,NNE,17,0.0,7.0,44,0.00,,OVC200,0.02,VWS V14.01,2013-03-17 23:39:00,
2013-03-17 19:44:00,36.1,16.3,30.14,NNE,16,3.0,7.0,44,0.00,,OVC200,0.02,VWS V14.01,2013-03-17 23:44:00,
2013-03-17 19:49:00,36.1,16.3,30.15,NNE,16,4.0,7.0,44,0.00,,OVC200,0.02,VWS V14.01,2013-03-17 23:49:00,
2013-03-17 19:54:00,36.1,16.3,30.15,NNE,16,0.0,7.0,44,0.00,,OVC200,0.02,VWS V14.01,2013-03-17 23:54:00,
2013-03-17 19:59:00,36.1,16.3,30.15,North,359,5.0,7.0,44,0.00,,OVC200,0.02,VWS V14.01,2013-03-17 23:59:00,
2013-03-17 20:04:00,36.0,16.2,30.16,NNW,340,4.0,6.0,44,0.00,,OVC210,0.02,VWS V14.01,2013-03-18 00:04:00,
2013-03-17 20:09:00,35.9,16.1,30.15,NNW,340,2.0,6.0,44,0.00,,OVC210,0.02,VWS V14.01,2013-03-18 00:09:00,
2013-03-17 20:14:00,35.9,16.1,30.16,North,0,3.0,6.0,44,0.00,,OVC210,0.02,VWS V14.01,2013-03-18 00:14:00,
2013-03-17 20:19:00,35.9,16.1,30.16,North,0,0.0,6.0,44,0.00,,OVC210,0.02,VWS V14.01,2013-03-18 00:19:00,
2013-03-17 20:24:00,35.9,16.6,30.16,NNE,25,0.0,6.0,45,0.00,,OVC210,0.02,VWS V14.01,2013-03-18 00:24:00,
2013-03-17 20:29:00,35.9,16.6,30.16,NNE,25,0.0,6.0,45,0.00,,OVC210,0.02,VWS V14.01,2013-03-18 00:29:00,
2013-03-17 20:34:00,35.9,16.6,30.17,NNE,25,0.0,2.0,45,0.00,,OVC210,0.02,VWS V14.01,2013-03-18 00:34:00,
2013-03-17 20:39:00,35.8,16.0,30.17,NNE,25,0.0,2.0,44,0.00,,OVC210,0.02,VWS V14.01,2013-03-18 00:39:00,
2013-03-17 20:44:00,35.8,16.5,30.17,NNE,25,0.0,2.0,45,0.00,,OVC210,0.02,VWS V14.01,2013-03-18 00:44:00,
2013-03-17 20:49:00,35.8,16.5,30.18,NNE,25,0.0,4.0,45,0.00,,OVC210,0.02,VWS V14.01,2013-03-18 00:49:00,
2013-03-17 20:54:00,35.7,16.5,30.17,NNE,14,2.0,6.0,45,0.00,,OVC210,0.02,VWS V14.01,2013-03-18 00:54:00,
2013-03-17 20:59:00,35.7,16.5,30.18,NNW,342,3.0,6.0,45,0.00,,OVC210,0.02,VWS V14.01,2013-03-18 00:59:00,
2013-03-17 21:04:00,35.8,16.5,30.18,NNE,14,0.0,3.0,45,0.00,,OVC220,0.02,VWS V14.01,2013-03-18 01:04:00,
2013-03-17 21:09:00,35.8,16.5,30.19,NNE,14,0.0,3.0,45,0.00,,OVC220,0.02,VWS V14.01,2013-03-18 01:09:00,
2013-03-17 21:14:00,35.8,17.1,30.19,NNE,14,0.0,3.0,46,0.00,,OVC220,0.02,VWS V14.01,2013-03-18 01:14:00,
2013-03-17 21:19:00,35.7,17.0,30.18,NNE,14,3.0,5.0,46,0.00,,OVC220,0.02,VWS V14.01,2013-03-18 01:19:00,
2013-03-17 21:24:00,35.8,16.5,30.18,North,7,4.0,7.0,45,0.00,,OVC220,0.02,VWS V14.01,2013-03-18 01:24:00,
2013-03-17 21:29:00,35.9,16.6,30.19,NNE,22,2.0,7.0,45,0.00,,OVC220,0.02,VWS V14.01,2013-03-18 01:29:00,
2013-03-17 21:34:00,35.7,16.5,30.19,NNE,22,0.0,4.0,45,0.00,,OVC220,0.02,VWS V14.01,2013-03-18 01:34:00,
2013-03-17 21:39:00,35.8,17.1,30.19,NNE,22,3.0,4.0,46,0.00,,OVC220,0.02,VWS V14.01,2013-03-18 01:39:00,
2013-03-17 21:44:00,35.7,17.0,30.20,NNE,22,0.0,4.0,46,0.00,,OVC220,0.02,VWS V14.01,2013-03-18 01:44:00,
2013-03-17 21:49:00,35.7,17.0,30.20,NNE,23,2.0,7.0,46,0.00,,OVC220,0.02,VWS V14.01,2013-03-18 01:49:00,
2013-03-17 21:54:00,35.7,16.9,30.20,NNE,23,2.0,7.0,46,0.00,,OVC220,0.02,VWS V14.01,2013-03-18 01:54:00,
2013-03-17 21:59:00,35.5,16.3,30.20,NNE,23,5.0,7.0,45,0.00,,OVC220,0.02,VWS V14.01,2013-03-18 01:59:00,
2013-03-17 22:04:00,35.5,16.3,30.20,NNE,17,0.0,6.0,45,0.00,,OVC220,0.02,VWS V14.01,2013-03-18 02:04:00,
2013-03-17 22:09:00,35.5,16.3,30.21,NNE,17,0.0,6.0,45,0.00,,OVC220,0.02,VWS V14.01,2013-03-18 02:09:00,
2013-03-17 22:14:00,35.5,16.8,30.21,NNE,17,0.0,6.0,46,0.00,,OVC220,0.02,VWS V14.01,2013-03-18 02:14:00,
2013-03-17 22:19:00,35.4,16.7,30.21,NNE,17,0.0,6.0,46,0.00,,OVC220,0.02,VWS V14.01,2013-03-18 02:19:00,
2013-03-17 22:24:00,35.4,17.2,30.21,NNE,17,0.0,6.0,47,0.00,,OVC220,0.02,VWS V14.01,2013-03-18 02:24:00,
2013-03-17 22:29:00,35.4,17.2,30.22,NNE,17,0.0,6.0,47,0.00,,OVC220,0.02,VWS V14.01,2013-03-18 02:29:00,
2013-03-17 22:34:00,35.4,17.2,30.23,NNE,17,0.0,4.0,47,0.00,,OVC220,0.02,VWS V14.01,2013-03-18 02:34:00,
2013-03-17 22:39:00,35.2,17.0,30.22,NNE,17,1.0,4.0,47,0.00,,OVC220,0.02,VWS V14.01,2013-03-18 02:39:00,
2013-03-17 22:44:00,35.3,16.1,30.23,NNE,17,0.0,4.0,45,0.00,,OVC220,0.02,VWS V14.01,2013-03-18 02:44:00,
2013-03-17 22:49:00,35.2,16.0,30.23,NE,56,0.0,4.0,45,0.00,,OVC220,0.02,VWS V14.01,2013-03-18 02:49:00,
2013-03-17 22:54:00,35.2,15.5,30.23,NE,56,0.0,4.0,44,0.00,,OVC220,0.02,VWS V14.01,2013-03-18 02:54:00,
2013-03-17 22:59:00,35.1,14.9,30.22,NE,56,0.0,4.0,43,0.00,,OVC220,0.02,VWS V14.01,2013-03-18 02:59:00,
2013-03-17 23:04:00,35.0,15.3,30.23,NE,55,0.0,1.0,44,0.00,,OVC230,0.02,VWS V14.01,2013-03-18 03:04:00,
2013-03-17 23:09:00,35.0,15.3,30.22,NE,56,0.0,1.0,44,0.00,,OVC230,0.02,VWS V14.01,2013-03-18 03:09:00,
2013-03-17 23:14:00,34.9,15.7,30.22,NE,56,0.0,1.0,45,0.00,,OVC230,0.02,VWS V14.01,2013-03-18 03:14:00,
2013-03-17 23:19:00,34.7,16.0,30.23,NE,56,0.0,1.0,46,0.00,,OVC230,0.02,VWS V14.01,2013-03-18 03:19:00,
2013-03-17 23:24:00,34.6,16.0,30.23,NE,56,0.0,1.0,46,0.00,,OVC230,0.02,VWS V14.01,2013-03-18 03:24:00,
2013-03-17 23:29:00,34.4,15.3,30.22,ENE,77,0.0,4.0,45,0.00,,OVC230,0.02,VWS V14.01,2013-03-18 03:29:00,
2013-03-17 23:34:00,34.4,14.8,30.23,ENE,70,0.0,4.0,44,0.00,,OVC230,0.02,VWS V14.01,2013-03-18 03:34:00,
2013-03-17 23:39:00,34.1,14.1,30.23,NE,47,0.0,5.0,43,0.00,,OVC230,0.02,VWS V14.01,2013-03-18 03:39:00,
2013-03-17 23:44:00,34.0,13.9,30.23,ENE,58,0.0,7.0,43,0.00,,OVC230,0.02,VWS V14.01,2013-03-18 03:44:00,
2013-03-17 23:49:00,33.9,13.3,30.23,ENE,65,0.0,7.0,42,0.00,,OVC230,0.02,VWS V14.01,2013-03-18 03:49:00,
2013-03-17 23:54:00,33.9,13.8,30.23,NE,50,0.0,8.0,43,0.00,,OVC230,0.02,VWS V14.01,2013-03-18 03:54:00,
2013-03-17 23:59:00,33.8,13.7,30.24,NE,53,0.0,8.0,43,0.00,,OVC230,0.02,VWS V14.01,2013-03-18 03:59:00,